Location: Unspecified
(41.1637°N, 0.0000°E)
Time: 07:46:53
(UTC+00:00)

M-CUBED/EXP-1 PRIME - Visible Passes

Search period start: 25 August 2019 00:00
Search period end: 04 September 2019 00:00
Orbit: 430 x 670 km, 101.7° (Epoch: 24 August)

Date Brightness Start Highest point End Pass type
(mag) Time Alt. Az. Time Alt. Az. Time Alt. Az.
25 Aug ? 01:54:13 10° N 01:55:56 23° N 01:55:56 23° N visible
26 Aug ? 01:49:48 10° N 01:51:22 22° N 01:51:22 22° N visible
27 Aug ? 01:45:24 10° NNE 01:46:48 20° NNE 01:46:48 20° NNE visible
28 Aug ? 01:41:00 10° NNE 01:42:13 19° NNE 01:42:13 19° NNE visible
29 Aug ? 01:36:38 10° NNE 01:37:39 17° NNE 01:37:39 17° NNE visible
30 Aug ? 01:32:16 10° NNE 01:33:04 15° NNE 01:33:04 15° NNE visible
30 Aug ? 03:08:29 10° NW 03:08:46 11° NW 03:08:46 11° NW visible
31 Aug ? 01:27:57 10° NNE 01:28:29 13° NNE 01:28:29 13° NNE visible
31 Aug ? 03:03:39 10° NNW 03:04:11 11° NW 03:04:11 11° NW visible
01 Sep ? 01:23:38 10° NNE 01:23:54 12° NNE 01:23:54 12° NNE visible
01 Sep ? 02:58:55 10° NNW 02:59:36 12° NNW 02:59:36 12° NNW visible
02 Sep ? 02:54:16 10° NNW 02:55:01 13° NNW 02:55:01 13° NNW visible
03 Sep ? 02:49:40 10° NNW 02:50:26 13° NNW 02:50:26 13° NNW visible
